TimeCDT,TemperatureF,Dew PointF,Humidity,Sea Level PressureIn,VisibilityMPH,Wind Direction,Wind SpeedMPH,Gust SpeedMPH,PrecipitationIn,Events,Conditions,WindDirDegrees,DateUTC
12:29 AM,46.6,45.1,95,29.78,10.0,SSE,6.9,-,N/A,,Clear,150,2012-10-21 05:29:00
12:49 AM,45.9,44.6,95,29.78,7.0,SE,8.1,-,N/A,,Clear,140,2012-10-21 05:49:00
1:09 AM,44.1,43.0,96,29.78,7.0,SE,5.8,-,N/A,,Clear,130,2012-10-21 06:09:00
1:28 AM,44.1,43.3,97,29.78,7.0,SE,5.8,-,N/A,,Clear,140,2012-10-21 06:28:00
1:49 AM,44.1,43.3,97,29.78,7.0,SE,5.8,-,N/A,,Clear,130,2012-10-21 06:49:00
2:08 AM,43.7,42.8,97,29.78,7.0,ESE,5.8,-,N/A,,Clear,120,2012-10-21 07:08:00
2:29 AM,43.9,43.2,97,29.79,7.0,ESE,6.9,-,N/A,,Clear,120,2012-10-21 07:29:00
2:48 AM,43.0,42.3,97,29.79,7.0,ESE,5.8,-,N/A,,Clear,110,2012-10-21 07:48:00
3:09 AM,43.0,42.3,97,29.79,7.0,East,6.9,-,N/A,,Clear,100,2012-10-21 08:09:00
3:28 AM,43.0,42.3,97,29.79,7.0,East,8.1,-,N/A,,Clear,90,2012-10-21 08:28:00
3:49 AM,43.0,42.3,97,29.79,7.0,ESE,9.2,-,N/A,,Clear,110,2012-10-21 08:49:00
4:09 AM,43.0,42.3,97,29.78,7.0,ESE,9.2,-,N/A,,Clear,110,2012-10-21 09:09:00
4:29 AM,43.0,42.3,97,29.77,7.0,ESE,9.2,-,N/A,,Clear,110,2012-10-21 09:29:00
4:48 AM,42.8,42.1,97,29.78,7.0,ESE,6.9,-,N/A,,Clear,120,2012-10-21 09:48:00
5:09 AM,42.6,41.9,97,29.78,7.0,East,9.2,-,N/A,,Clear,100,2012-10-21 10:09:00
5:28 AM,42.8,42.3,98,29.78,7.0,East,8.1,-,N/A,,Clear,100,2012-10-21 10:28:00
5:48 AM,42.8,42.3,98,29.78,7.0,ESE,9.2,-,N/A,,Clear,110,2012-10-21 10:48:00
6:08 AM,42.8,42.1,97,29.77,7.0,ESE,9.2,-,N/A,,Clear,110,2012-10-21 11:08:00
6:29 AM,42.8,42.3,98,29.77,7.0,East,9.2,-,N/A,,Clear,100,2012-10-21 11:29:00
6:49 AM,42.8,42.1,97,29.76,7.0,East,11.5,16.1,N/A,,Clear,100,2012-10-21 11:49:00
7:09 AM,43.7,43.2,98,29.78,7.0,ESE,6.9,-,N/A,,Clear,120,2012-10-21 12:09:00
7:29 AM,42.8,42.1,97,29.76,7.0,East,8.1,-,N/A,,Clear,90,2012-10-21 12:29:00
7:49 AM,43.0,42.3,97,29.76,7.0,East,12.7,-,N/A,,Clear,100,2012-10-21 12:49:00
8:09 AM,42.8,41.9,97,29.76,7.0,ESE,10.4,-,N/A,,Clear,110,2012-10-21 13:09:00
8:28 AM,44.1,43.3,97,29.76,7.0,ESE,10.4,-,N/A,,Clear,110,2012-10-21 13:28:00
8:48 AM,46.6,45.1,95,29.76,10.0,ESE,12.7,-,N/A,,Clear,120,2012-10-21 13:48:00
9:09 AM,49.1,47.1,93,29.76,10.0,ESE,11.5,-,N/A,,Clear,110,2012-10-21 14:09:00
9:29 AM,49.1,46.4,90,29.75,10.0,ESE,11.5,17.3,N/A,,Clear,110,2012-10-21 14:29:00
9:49 AM,50.7,46.8,86,29.75,10.0,ESE,13.8,18.4,N/A,,Clear,120,2012-10-21 14:49:00
10:09 AM,53.2,47.8,82,29.75,10.0,SE,12.7,18.4,N/A,,Clear,130,2012-10-21 15:09:00
10:29 AM,54.1,47.3,78,29.77,10.0,SE,10.4,16.1,N/A,,Clear,140,2012-10-21 15:29:00
10:49 AM,56.7,48.7,75,29.77,10.0,SE,9.2,16.1,N/A,,Clear,140,2012-10-21 15:49:00
10:57 AM,56.7,47.8,72,29.77,10.0,SE,11.5,-,N/A,,Clear,130,2012-10-21 15:57:00
11:30 AM,59.0,48.2,67,29.77,10.0,SSE,9.2,-,N/A,,Clear,160,2012-10-21 16:30:00
11:50 AM,59.0,48.2,67,29.77,10.0,SSE,9.2,-,N/A,,Clear,150,2012-10-21 16:50:00
12:10 PM,60.8,50.0,68,29.76,10.0,SSE,9.2,18.4,N/A,,Clear,150,2012-10-21 17:10:00
12:30 PM,60.8,50.0,68,29.76,10.0,South,9.2,16.1,N/A,,Clear,170,2012-10-21 17:30:00
12:50 PM,62.6,50.0,63,29.77,10.0,South,10.4,-,N/A,,Clear,180,2012-10-21 17:50:00
1:10 PM,60.8,50.0,68,29.76,10.0,South,10.4,16.1,N/A,,Clear,180,2012-10-21 18:10:00
1:30 PM,62.6,51.8,68,29.76,10.0,South,6.9,-,N/A,,Clear,170,2012-10-21 18:30:00
1:49 PM,62.2,51.1,67,29.76,10.0,SSW,8.1,-,N/A,,Clear,200,2012-10-21 18:49:00
2:09 PM,62.1,50.9,67,29.76,10.0,SSW,6.9,-,N/A,,Clear,200,2012-10-21 19:09:00
2:29 PM,64.4,52.2,64,29.77,10.0,South,6.9,-,N/A,,Clear,190,2012-10-21 19:29:00
2:49 PM,63.5,52.0,66,29.77,10.0,SW,4.6,-,N/A,,Scattered Clouds,230,2012-10-21 19:49:00
3:09 PM,64.4,52.3,65,29.78,10.0,SW,9.2,-,N/A,,Scattered Clouds,220,2012-10-21 20:09:00
3:29 PM,64.4,51.6,63,29.78,10.0,West,8.1,-,N/A,,Clear,260,2012-10-21 20:29:00
3:49 PM,64.4,51.6,63,29.78,10.0,SW,6.9,-,N/A,,Clear,220,2012-10-21 20:49:00
4:09 PM,64.4,52.2,64,29.79,10.0,West,9.2,-,N/A,,Clear,260,2012-10-21 21:09:00
4:29 PM,62.2,51.1,67,29.80,10.0,West,5.8,-,N/A,,Clear,270,2012-10-21 21:29:00
4:48 PM,62.1,51.1,67,29.80,10.0,WNW,8.1,-,N/A,,Clear,290,2012-10-21 21:48:00
5:09 PM,60.4,50.9,71,29.81,10.0,WNW,5.8,-,N/A,,Clear,300,2012-10-21 22:09:00
5:26 PM,61.5,51.4,69,29.81,10.0,West,6.9,-,N/A,,Clear,280,2012-10-21 22:26:00
5:49 PM,59.2,50.0,72,29.82,10.0,WNW,8.1,-,N/A,,Clear,300,2012-10-21 22:49:00
6:08 PM,59.2,50.7,74,29.83,10.0,WNW,6.9,-,N/A,,Clear,300,2012-10-21 23:08:00
6:29 PM,56.7,49.3,76,29.84,10.0,WNW,6.9,-,N/A,,Clear,300,2012-10-21 23:29:00
6:49 PM,54.9,48.7,80,29.84,10.0,WNW,6.9,-,N/A,,Clear,300,2012-10-21 23:49:00
7:09 PM,54.1,49.3,84,29.85,10.0,NW,5.8,-,N/A,,Clear,320,2012-10-22 00:09:00
7:28 PM,51.8,47.7,86,29.86,10.0,NW,4.6,-,N/A,,Clear,310,2012-10-22 00:28:00
7:49 PM,49.1,46.2,90,29.87,10.0,NW,5.8,-,N/A,,Clear,310,2012-10-22 00:49:00
8:09 PM,49.1,46.4,90,29.88,10.0,NW,6.9,-,N/A,,Clear,320,2012-10-22 01:09:00
8:29 PM,49.1,46.4,90,29.89,10.0,NW,5.8,-,N/A,,Clear,310,2012-10-22 01:29:00
8:48 PM,49.1,46.6,91,29.89,10.0,NNW,6.9,-,N/A,,Clear,330,2012-10-22 01:48:00
9:08 PM,49.1,46.8,92,29.89,10.0,NNW,9.2,-,N/A,,Clear,340,2012-10-22 02:08:00
9:29 PM,51.8,48.0,87,29.90,10.0,NNW,10.4,-,N/A,,Clear,330,2012-10-22 02:29:00
9:48 PM,51.8,47.7,86,29.90,10.0,NNW,8.1,-,N/A,,Clear,340,2012-10-22 02:48:00
10:09 PM,51.8,47.7,86,29.90,10.0,North,6.9,-,N/A,,Clear,350,2012-10-22 03:09:00
10:29 PM,50.4,46.6,87,29.90,10.0,North,6.9,-,N/A,,Clear,350,2012-10-22 03:29:00
10:49 PM,49.1,45.7,88,29.91,10.0,NNW,6.9,-,N/A,,Clear,340,2012-10-22 03:49:00
11:09 PM,49.1,46.0,89,29.91,10.0,NNW,5.8,-,N/A,,Clear,340,2012-10-22 04:09:00
11:29 PM,49.1,46.8,92,29.90,10.0,NNW,3.5,-,N/A,,Clear,340,2012-10-22 04:29:00
11:48 PM,49.1,46.9,92,29.90,10.0,North,3.5,-,N/A,,Clear,350,2012-10-22 04:48:00